This is the latest recevied weather packets stored in our database for station/object KG5EO. If no packets are shown the sender has not sent any weather packets the latest 10 day(s).
| Time | Temp. | Humidity | Pressure | Rain* | Wind** | Luminosity | Snow |
|---|---|---|---|---|---|---|---|
| 1777399268 | 25° C | 23% | 41.2 hPa | 0 mm | - | - | - |
| 1777398964 | 25° C | 25% | 41.2 hPa | 0 mm | - | - | - |
| 1777398664 | 25.56° C | 25% | 41.2 hPa | 0 mm | - | - | - |
| 1777398366 | 25° C | 24% | 41.2 hPa | 0 mm | - | - | - |
| 1777398063 | 25° C | 24% | 41.2 hPa | 0 mm | - | - | - |
| 1777397764 | 25° C | 23% | 41.2 hPa | 0 mm | - | - | - |
| 1777397465 | 25.56° C | 22% | 41.2 hPa | 0 mm | - | - | - |
| 1777397163 | 25° C | 25% | 41.2 hPa | 0 mm | - | - | - |
| 1777396864 | 24.44° C | 23% | 41.2 hPa | 0 mm | - | - | - |
| 1777396565 | 23.89° C | 24% | 41.2 hPa | 0 mm | - | - | - |
| 1777396265 | 23.89° C | 26% | 41.2 hPa | 0 mm | - | - | - |
| 1777395963 | 24.44° C | 24% | 41.2 hPa | 0 mm | - | - | - |
| 1777395664 | 23.89° C | 28% | 41.2 hPa | 0 mm | - | - | - |
| 1777395363 | 23.89° C | 25% | 41.2 hPa | 0 mm | - | - | - |
| 1777395063 | 24.44° C | 25% | 41.2 hPa | 0 mm | - | - | - |
| 1777394764 | 24.44° C | 25% | 41.2 hPa | 0 mm | - | - | - |
| 1777394462 | 23.89° C | 27% | 41.2 hPa | 0 mm | - | - | - |
| 1777394162 | 23.89° C | 27% | 41.2 hPa | 0 mm | - | - | - |
| 1777393863 | 23.33° C | 28% | 41.2 hPa | 0 mm | - | - | - |
| 1777393561 | 23.33° C | 26% | 41.2 hPa | 0 mm | - | - | - |
| 1777393263 | 22.78° C | 26% | 41.2 hPa | 0 mm | - | - | - |
| 1777392965 | 23.33° C | 26% | 41.2 hPa | 0 mm | - | - | - |
| 1777392661 | 23.89° C | 27% | 41.2 hPa | 0 mm | - | - | - |
| 1777392361 | 23.33° C | 28% | 41.2 hPa | 0 mm | - | - | - |
| 1777392063 | 22.78° C | 28% | 41.2 hPa | 0 mm | - | - | - |
* Rain latest hour (hover to see other rain measurements)
** Current wind speed in m/s (hover to see current wind gust speed)